TimeCEST,TemperatureF,Dew PointF,Humidity,Sea Level PressureIn,VisibilityMPH,Wind Direction,Wind SpeedMPH,Gust SpeedMPH,PrecipitationIn,Events,Conditions,WindDirDegrees,DateUTC
12:25 AM,44.6,39.2,81,30.27,6.2,NE,10.4,-,N/A,,Unknown,50,2013-04-30 22:25:00
12:55 AM,44.6,39.2,81,30.30,6.2,NE,11.5,-,N/A,,Unknown,50,2013-04-30 22:55:00
1:25 AM,42.8,37.4,81,30.30,6.2,ENE,11.5,-,N/A,,Unknown,60,2013-04-30 23:25:00
1:55 AM,42.8,37.4,81,30.30,6.2,NE,10.4,-,N/A,,Unknown,50,2013-04-30 23:55:00
2:00 AM,42,37,77,30.30,11,NE,8.9,,,,Partly Cloudy,50,2013-05-01 00:00:00
2:25 AM,41.0,37.4,87,30.27,6.2,NE,10.4,-,N/A,,Unknown,50,2013-05-01 00:25:00
2:55 AM,41.0,37.4,87,30.27,6.2,NE,9.2,-,N/A,,Unknown,50,2013-05-01 00:55:00
3:25 AM,41.0,37.4,87,30.27,6.2,NE,8.1,-,N/A,,Unknown,50,2013-05-01 01:25:00
3:55 AM,41.0,37.4,87,30.27,6.2,NE,6.9,-,N/A,,Unknown,50,2013-05-01 01:55:00
4:25 AM,39.2,35.6,87,30.27,6.2,NE,8.1,-,N/A,,Unknown,50,2013-05-01 02:25:00
4:55 AM,39.2,35.6,87,30.27,6.2,NE,8.1,-,N/A,,Unknown,50,2013-05-01 02:55:00
5:00 AM,39,36,84,30.29,9,NE,6.7,,,,,50,2013-05-01 03:00:00
5:25 AM,37.4,35.6,93,30.27,6.2,NE,6.9,-,N/A,,Unknown,50,2013-05-01 03:25:00
5:55 AM,37.4,35.6,93,30.27,6.2,ENE,8.1,-,N/A,,Unknown,60,2013-05-01 03:55:00
6:25 AM,37.4,33.8,87,30.27,6.2,ENE,9.2,-,N/A,,Unknown,60,2013-05-01 04:25:00
6:55 AM,39.2,33.8,81,30.27,6.2,ENE,9.2,-,N/A,,Unknown,70,2013-05-01 04:55:00
7:25 AM,39.2,35.6,87,30.27,6.2,ENE,10.4,-,N/A,,Unknown,60,2013-05-01 05:25:00
7:55 AM,41.0,35.6,81,30.27,6.2,ENE,10.4,-,N/A,,Unknown,60,2013-05-01 05:55:00
8:00 AM,42,36,71,30.28,12,ENE,11.2,,,,Partly Cloudy,60,2013-05-01 06:00:00
8:25 AM,42.8,37.4,81,30.27,6.2,ENE,11.5,-,N/A,,Unknown,60,2013-05-01 06:25:00
8:55 AM,44.6,37.4,76,30.27,6.2,ENE,10.4,-,N/A,,Unknown,60,2013-05-01 06:55:00
9:25 AM,46.4,39.2,76,30.27,6.2,ENE,10.4,-,N/A,,Unknown,60,2013-05-01 07:25:00
9:55 AM,48.2,39.2,71,30.27,6.2,ENE,9.2,-,N/A,,Unknown,60,2013-05-01 07:55:00
10:25 AM,50.0,41.0,71,30.24,6.2,ENE,9.2,-,N/A,,Unknown,60,2013-05-01 08:25:00
10:55 AM,51.8,39.2,62,30.24,6.2,ENE,10.4,-,N/A,,Unknown,60,2013-05-01 08:55:00
11:00 AM,52,40,54,30.26,14,ENE,8.9,,,,,70,2013-05-01 09:00:00
11:25 AM,53.6,42.8,67,30.24,6.2,ENE,9.2,-,N/A,,Unknown,60,2013-05-01 09:25:00
11:55 AM,53.6,42.8,67,30.24,6.2,ENE,8.1,-,N/A,,Unknown,60,2013-05-01 09:55:00
12:25 PM,55.4,41.0,58,30.21,6.2,NE,9.2,-,N/A,,Unknown,50,2013-05-01 10:25:00
12:55 PM,57.2,39.2,51,30.21,6.2,NE,10.4,-,N/A,,Unknown,50,2013-05-01 10:55:00
1:25 PM,59.0,41.0,51,30.21,6.2,ENE,11.5,-,N/A,,Unknown,60,2013-05-01 11:25:00
1:55 PM,59.0,41.0,51,30.18,6.2,NE,11.5,-,N/A,,Unknown,50,2013-05-01 11:55:00
2:00 PM,60,44,45,30.19,,ENE,8.9,,,,Scattered Clouds,60,2013-05-01 12:00:00
2:25 PM,60.8,42.8,52,30.18,6.2,NE,8.1,-,N/A,,Unknown,50,2013-05-01 12:25:00
2:55 PM,60.8,41.0,48,30.15,6.2,NE,9.2,-,N/A,,Unknown,50,2013-05-01 12:55:00
3:25 PM,60.8,42.8,52,30.15,6.2,NNE,10.4,-,N/A,,Unknown,30,2013-05-01 13:25:00
3:55 PM,60.8,41.0,48,30.15,6.2,NE,11.5,-,N/A,,Unknown,50,2013-05-01 13:55:00
4:25 PM,60.8,42.8,52,30.15,6.2,NE,10.4,-,N/A,,Unknown,50,2013-05-01 14:25:00
4:55 PM,60.8,41.0,48,30.15,6.2,ENE,12.7,-,N/A,,Unknown,60,2013-05-01 14:55:00
5:00 PM,61,41,37,30.16,12,ENE,11.2,,,,Partly Cloudy,60,2013-05-01 15:00:00
5:25 PM,60.8,41.0,48,30.15,6.2,NE,10.4,-,N/A,,Unknown,50,2013-05-01 15:25:00
5:55 PM,60.8,41.0,48,30.12,6.2,NE,9.2,-,N/A,,Unknown,50,2013-05-01 15:55:00
6:25 PM,60.8,39.2,45,30.12,6.2,NE,10.4,-,N/A,,Unknown,40,2013-05-01 16:25:00
6:55 PM,59.0,41.0,51,30.12,6.2,NNE,12.7,-,N/A,,Unknown,20,2013-05-01 16:55:00
7:25 PM,59.0,41.0,51,30.12,6.2,NNE,12.7,-,N/A,,Unknown,20,2013-05-01 17:25:00
7:55 PM,57.2,41.0,55,30.12,6.2,NNE,13.8,-,N/A,,Unknown,30,2013-05-01 17:55:00
8:00 PM,57,39,40,30.15,14,NNE,13.4,,,,Partly Cloudy,30,2013-05-01 18:00:00
8:25 PM,55.4,41.0,58,30.15,6.2,NNE,15.0,-,N/A,,Unknown,30,2013-05-01 18:25:00
8:55 PM,53.6,39.2,58,30.15,6.2,NNE,12.7,-,N/A,,Unknown,20,2013-05-01 18:55:00
9:25 PM,53.6,39.2,58,30.15,6.2,NNE,12.7,-,N/A,,Unknown,20,2013-05-01 19:25:00
9:55 PM,51.8,37.4,58,30.15,6.2,NNE,12.7,-,N/A,,Unknown,20,2013-05-01 19:55:00
10:25 PM,50.0,37.4,62,30.18,6.2,NNE,10.4,-,N/A,,Unknown,20,2013-05-01 20:25:00
10:55 PM,48.2,37.4,66,30.18,6.2,NNE,9.2,-,N/A,,Unknown,20,2013-05-01 20:55:00
11:00 PM,49,37,53,30.18,19,NNE,8.9,,,,,20,2013-05-01 21:00:00
11:25 PM,48.2,37.4,66,30.18,6.2,NNE,6.9,-,N/A,,Unknown,20,2013-05-01 21:25:00
11:55 PM,48.2,37.4,66,30.15,6.2,NNE,8.1,-,N/A,,Unknown,30,2013-05-01 21:55:00